sat.trackr.live / text

‹ back to catalog

STARLINK-34143

NORAD 63896 · 2025-095G

PAYLOAD ACTIVE UNKNOWN

§ Identity

Operator
Country
US
Launch date
2025-05-10
Launch site
AFETR
Launch vehicle
Mass (kg)
RCS (m²)

Purposes: comms

External: N2YO · Heavens-Above · Gunter

§ Orbital elements

Epoch: 2026-05-25T03:47:06.137952Z

Period
94.27 min
Inclination
42.9997°
Eccentricity
0.0001074
Mean motion
15.27593001 rev/d
Perigee alt
482.3 km
Apogee alt
483.7 km
Semi-major
6,861.1 km
B*
5.4404e-4
RAAN
104.2733°
Arg perigee
255.1656°
Mean anomaly
104.9077°
Rev number
5,948

§ Raw data

STARLINK-341431 63896U 25095G   26145.15770993  .00014745  00000+0  54404-3 0  99922 63896  42.9997 104.2733 0001074 255.1656 104.9077 15.27593001 59483

JSON: /api/v1/satellites/63896 · /tle

For live sub-satellite position, see the globe view (requires WebGL).

§ Visibility from observer

Set your observer location to see the next 7 days of passes ≥ 10°. The values pass through the URL so the page stays shareable.

No JS? Fill the form by hand. The geolocation button needs JavaScript.